Stations météo

réclame
Mon MeteoGroup
Vinga, Suède (2516): Température de l'air & dewpoint: 14.10.2018 04:00:00 - 20.10.2018 04:00:00 (CEST)Vinga, Suède (2516): Vitesse du vent & gusts: 14.10.2018 04:00:00 - 20.10.2018 04:00:00 (CEST)Vinga, Suède (2516): Direction du vent: 14.10.2018 04:00:00 - 20.10.2018 04:00:00 (CEST)Vinga, Suède (2516): reduced air pressure: 14.10.2018 04:00:00 - 20.10.2018 04:00:00 (CEST)Vinga, Suède (2516): visibility: 14.10.2018 04:00:00 - 20.10.2018 04:00:00 (CEST)Vinga, Suède (2516): Quantités de précipitations: 14.10.2018 04:00:00 - 20.10.2018 04:00:00 (CEST)
Date & Time tt [°C] td [°C] ff [km/h] ff [knt] fx [km/h] fx [knt] dd ppp [hPa] vv [km] rr [mm]
20.10.2018 04:00:00 11,0 7,1 31 17 41 22 WSW 1021,6 32 0,0
20.10.2018 03:00:00 11,0 6,7 24 13 33 18 WSW 1021,6 40 0,0
20.10.2018 02:00:00 10,8 6,7 23 12 35 19 WSW 1022,3 32 0,0
20.10.2018 01:00:00 10,6 6,5 22 12 35 19 W 1022,4 30 0,0
20.10.2018 00:00:00 10,6 6,2 23 12 39 21 W 1022,2 29 0,0
19.10.2018 23:00:00 10,7 5,9 23 12 39 21 W 1022,5 29 0,0
19.10.2018 22:00:00 10,7 5,9 27 15 39 21 W 1022,7 31 0,0
19.10.2018 21:00:00 10,9 7,0 24 13 35 19 W 1022,6 30 0,0
19.10.2018 20:00:00 10,9 6,0 18 10 29 16 W 1022,5 32 0,0
19.10.2018 19:00:00 11,0 6,3 10 5 16 8 W 1022,5 39 0,0
19.10.2018 18:00:00 10,7 6,1 8 4 18 10 WSW 1022,4 32 0,0
19.10.2018 17:00:00 11,4 6,1 8 4 18 10 WSW 1022,6 30 0,0
19.10.2018 16:00:00 11,8 5,7 13 7 18 10 WSW 1023,0 30 0,0
19.10.2018 15:00:00 12,0 5,8 11 6 19 10 SW 1023,5 27 0,0
19.10.2018 14:00:00 12,1 6,4 13 7 19 10 SW 1023,9 31 0,0
19.10.2018 13:00:00 12,1 6,2 14 8 18 10 SW 1023,9 26 0,0
19.10.2018 12:00:00 11,6 6,5 11 6 16 9 SSW 1023,9 24 0,0
19.10.2018 11:00:00 11,9 6,6 9 5 13 7 SW 1024,2 31 0,0
19.10.2018 10:00:00 11,5 6,0 8 4 14 7 SW 1024,0 25 0,0
19.10.2018 09:00:00 10,9 5,6 9 5 14 7 SW 1023,7 35 0,0
19.10.2018 08:00:00 10,7 6,6 9 5 16 9 SW 1023,4 31 0,0
19.10.2018 07:00:00 10,6 7,3 7 4 19 10 SW 1023,2 31 0,0
19.10.2018 06:00:00 - - - - 19 10 - - - -
19.10.2018 05:00:00 11,1 7,6 15 8 20 11 SW 1023,5 30 0,0
19.10.2018 04:00:00 11,3 7,0 13 7 20 11 SSW 1023,6 33 0,0
19.10.2018 03:00:00 11,5 5,8 16 8 18 10 SSW 1023,8 37 0,0
19.10.2018 02:00:00 11,5 5,6 10 5 13 7 SSW 1023,7 33 0,0
19.10.2018 01:00:00 11,2 5,7 8 5 14 8 SW 1023,8 29 0,0
19.10.2018 00:00:00 11,1 6,4 9 5 14 8 SSE 1023,7 34 0,0
18.10.2018 23:00:00 10,7 4,4 6 3 21 11 NW 1023,7 37 0,0
18.10.2018 22:00:00 11,2 5,1 11 6 27 14 NNW 1023,8 36 0,0
18.10.2018 21:00:00 11,4 5,1 16 9 27 14 NNW 1023,3 35 0,0
18.10.2018 20:00:00 11,3 5,8 18 10 31 17 NW 1023,0 29 0,0
18.10.2018 19:00:00 11,3 5,0 20 11 34 18 NW 1022,7 31 0,0
18.10.2018 18:00:00 11,4 5,1 24 13 34 18 NW 1022,5 31 0,0
18.10.2018 17:00:00 11,8 5,7 26 14 34 18 NW 1022,2 28 0,0
18.10.2018 16:00:00 12,3 5,7 23 13 38 20 NW 1022,0 27 0,0
18.10.2018 15:00:00 12,6 5,3 26 14 38 20 NW 1021,9 25 0,0
18.10.2018 14:00:00 12,9 5,1 28 15 40 22 NNW 1021,7 21 0,0
18.10.2018 13:00:00 12,5 5,6 29 16 43 23 NNW 1021,7 22 0,0
18.10.2018 12:00:00 12,6 6,0 29 16 43 23 NNW 1021,5 22 0,0
18.10.2018 11:00:00 12,4 5,8 31 17 42 23 NW 1021,5 22 0,0
18.10.2018 10:00:00 12,2 6,0 31 17 45 24 NW 1020,8 24 0,0
18.10.2018 09:00:00 12,0 6,3 31 17 45 24 NW 1020,1 26 0,0
18.10.2018 08:00:00 11,9 7,4 31 17 44 24 NW 1019,5 24 0,0
18.10.2018 07:00:00 12,1 8,2 30 16 44 24 NW 1018,9 22 0,0
18.10.2018 06:00:00 12,3 8,6 31 17 39 21 NW 1018,6 23 0,0
18.10.2018 05:00:00 12,5 10,2 27 15 35 19 WNW 1018,6 19 0,0
18.10.2018 04:00:00 12,6 11,0 20 11 30 16 WNW 1018,5 20 0,0
18.10.2018 03:00:00 12,8 11,5 16 9 22 12 W 1018,6 18 0,0
18.10.2018 02:00:00 12,8 11,5 13 7 18 10 W 1018,5 13 0,0
18.10.2018 01:00:00 12,9 11,3 11 6 21 12 W 1018,8 12 0,0
18.10.2018 00:00:00 12,9 11,5 11 6 22 12 W 1018,7 12 0,0
17.10.2018 23:00:00 12,9 11,6 15 8 22 12 W 1018,5 11 0,0
17.10.2018 22:00:00 13,2 12,6 8 4 21 11 W 1018,5 11 0,0
17.10.2018 21:00:00 13,2 12,6 13 7 21 11 WNW 1018,4 7 0,0
17.10.2018 20:00:00 13,5 12,9 9 5 19 11 WSW 1017,9 4,0 0,0
17.10.2018 19:00:00 13,5 12,9 11 6 23 13 SW 1017,5 3,7 0,0
17.10.2018 18:00:00 13,6 13,0 16 9 26 14 SSW 1017,4 4,4 0,0
17.10.2018 17:00:00 13,6 12,8 21 12 31 17 S 1017,1 6 0,0
17.10.2018 16:00:00 13,7 12,8 22 12 39 21 S 1017,1 7 0,0
17.10.2018 15:00:00 13,6 13,0 30 16 39 21 S 1016,8 7 0,0
17.10.2018 14:00:00 13,3 13,0 29 16 42 23 S 1016,6 5 0,0
17.10.2018 13:00:00 12,9 12,6 35 19 42 23 S 1016,9 2,3 0,0
17.10.2018 12:00:00 12,8 12,5 34 19 42 23 S 1017,1 0,9 0,0
17.10.2018 11:00:00 13,0 12,7 35 19 42 23 S 1017,2 1,1 0,0
17.10.2018 10:00:00 13,2 12,9 35 19 41 22 S 1017,0 3,4 0,0
17.10.2018 09:00:00 13,2 12,7 26 14 32 17 S 1017,1 3,1 0,0
17.10.2018 08:00:00 13,3 12,5 14 8 38 21 S 1017,0 4,2 0,0
17.10.2018 07:00:00 13,1 12,2 22 12 39 21 SW 1017,0 7 0,0
17.10.2018 06:00:00 13,4 12,6 32 18 39 21 S 1016,5 7 0,0
17.10.2018 05:00:00 13,2 12,4 29 16 34 18 S 1016,6 7 0,0
17.10.2018 04:00:00 13,2 12,1 24 13 30 16 S 1016,8 9 0,0
17.10.2018 03:00:00 13,1 11,8 24 13 29 15 S 1017,2 10 0,0
17.10.2018 02:00:00 13,1 12,0 19 10 25 14 S 1017,4 9 0,0
17.10.2018 01:00:00 13,1 12,2 15 8 22 12 SSW 1017,5 7 0,0
17.10.2018 00:00:00 12,9 12,1 12 7 19 10 SW 1017,8 9 0,0
16.10.2018 23:00:00 12,5 11,7 17 9 19 10 SSW 1017,7 9 0,0
16.10.2018 22:00:00 12,4 11,8 13 7 19 10 SSW 1017,7 6 0,0
16.10.2018 21:00:00 12,1 11,6 13 7 19 10 SW 1017,7 9 0,0
16.10.2018 20:00:00 12,3 11,8 11 6 15 8 SW 1017,7 1,0 0,0
16.10.2018 19:00:00 12,3 11,5 10 5 13 7 S 1017,3 3,3 0,0
16.10.2018 18:00:00 12,3 11,2 7 4 11 6 SSE 1017,1 6 0,0
16.10.2018 17:00:00 12,5 10,9 2 1 6 3 S 1017,2 7 0,0
16.10.2018 16:00:00 12,7 10,9 4 2 7 4 SSW 1017,3 8 0,0
16.10.2018 15:00:00 13,2 11,2 2 1 7 4 WNW 1017,5 8 0,0
16.10.2018 14:00:00 13,3 11,0 3 2 8 4 NNE 1017,2 9 0,0
16.10.2018 13:00:00 13,9 11,4 0 0 11 6 N 1017,2 9 0,0
16.10.2018 12:00:00 12,8 11,0 6 3 13 7 E 1017,3 8 0,0
16.10.2018 11:00:00 12,4 11,0 6 3 13 7 E 1017,4 9 0,0
16.10.2018 10:00:00 11,9 10,6 8 4 15 8 E 1017,4 10 0,0
16.10.2018 09:00:00 11,6 10,2 8 5 16 8 ENE 1017,2 14 0,0
16.10.2018 08:00:00 11,5 9,6 11 6 16 8 NNE 1016,8 30 0,0
16.10.2018 07:00:00 11,5 8,9 11 6 14 8 NNE 1016,2 38 0,0
16.10.2018 06:00:00 11,7 9,6 8 4 20 11 NE 1015,9 35 0,0
16.10.2018 05:00:00 12,0 10,1 13 7 27 14 NNE 1015,2 36 0,0
16.10.2018 04:00:00 12,2 10,3 18 10 27 14 N 1015,5 24 0,0
16.10.2018 03:00:00 12,6 10,8 17 9 26 14 N 1015,5 30 0,0
16.10.2018 02:00:00 12,4 10,6 7 4 10 5 NNW 1015,2 27 0,0
16.10.2018 01:00:00 12,3 10,7 3 1 19 11 NNW 1015,0 22 0,0
16.10.2018 00:00:00 12,3 10,5 6 3 19 11 NE 1014,5 24 0,0
15.10.2018 23:00:00 12,4 11,1 13 7 27 15 NNW 1014,8 26 0,0
15.10.2018 22:00:00 12,4 11,9 13 7 27 15 NW 1014,6 5 0,0
15.10.2018 21:00:00 13,0 12,2 10 5 16 9 WSW 1014,3 6 0,0
15.10.2018 20:00:00 - - - - - - - - - -
15.10.2018 19:00:00 13,2 12,1 17 9 23 13 S 1013,7 12 0,0
15.10.2018 18:00:00 13,3 12,2 18 10 23 13 SSE 1013,1 13 0,0
15.10.2018 17:00:00 13,6 12,2 14 8 23 12 S 1013,1 11 0,0
15.10.2018 16:00:00 13,7 12,1 15 8 27 14 S 1012,9 14 0,0
15.10.2018 15:00:00 13,9 11,9 21 11 30 16 S 1013,0 16 0,0
15.10.2018 14:00:00 14,1 12,0 21 11 30 16 S 1012,9 14 0,0
15.10.2018 13:00:00 14,0 12,0 20 11 42 23 S 1012,8 15 0,0
15.10.2018 12:00:00 14,0 11,9 27 15 42 23 S 1012,9 19 0,0
15.10.2018 11:00:00 13,8 11,7 35 19 42 23 S 1012,2 21 0,0
15.10.2018 10:00:00 13,7 11,9 32 17 39 21 S 1012,3 15 0,0
15.10.2018 09:00:00 13,5 11,9 30 16 43 23 S 1012,0 18 0,0
15.10.2018 08:00:00 13,6 11,6 31 17 44 24 S 1011,2 18 0,0
15.10.2018 07:00:00 13,9 11,8 36 20 44 24 S 1010,6 20 0,0
15.10.2018 06:00:00 14,0 11,7 34 18 41 22 S 1010,4 21 -
15.10.2018 05:00:00 13,8 11,8 30 16 46 25 S 1010,4 18 0,0
15.10.2018 04:00:00 14,1 11,6 34 18 46 25 S 1010,4 15 0,0
15.10.2018 03:00:00 14,0 11,7 31 17 44 24 S 1010,4 15 0,0
15.10.2018 02:00:00 14,3 11,6 34 18 49 26 S 1010,1 16 0,0
15.10.2018 01:00:00 14,4 11,5 37 20 56 30 S 1009,7 14 0,0
15.10.2018 00:00:00 14,4 11,5 42 23 56 30 S 1009,8 15 0,0
14.10.2018 23:00:00 14,5 11,5 44 24 63 34 S 1009,7 17 0,0
14.10.2018 22:00:00 14,2 11,5 44 24 63 34 S 1009,6 15 0,0
14.10.2018 21:00:00 14,4 11,2 49 27 60 33 SSE 1009,2 19 0,0
14.10.2018 20:00:00 14,4 11,4 46 25 57 31 S 1009,7 18 0,0
14.10.2018 19:00:00 14,4 11,2 48 26 57 31 S 1009,8 18 0,0
14.10.2018 18:00:00 14,6 11,6 42 23 51 27 S 1010,0 18 0,0
14.10.2018 17:00:00 14,4 11,7 36 19 48 26 S 1010,5 17 0,0
14.10.2018 16:00:00 15,1 11,1 40 22 48 26 S 1010,9 20 0,0
14.10.2018 15:00:00 15,3 11,3 37 20 51 27 S 1011,7 17 0,0
14.10.2018 14:00:00 15,1 11,3 41 22 60 33 SSE 1012,1 21 0,0
14.10.2018 13:00:00 14,6 11,0 46 25 60 33 SSE 1012,8 17 0,0
14.10.2018 12:00:00 14,5 10,9 46 25 57 31 SSE 1013,1 16 0,0
14.10.2018 11:00:00 14,8 10,6 44 24 56 31 SSE 1013,5 17 0,0
14.10.2018 10:00:00 14,6 10,8 42 23 55 30 SSE 1013,6 20 0,0
14.10.2018 09:00:00 14,6 11,0 42 23 56 31 SSE 1013,4 19 0,0
14.10.2018 08:00:00 14,5 10,9 45 25 56 31 SSE 1013,4 18 0,0
14.10.2018 07:00:00 14,6 11,2 43 23 56 31 SSE 1014,1 17 0,0
14.10.2018 06:00:00 14,4 11,5 41 22 56 31 SSE 1014,5 15 0,0
14.10.2018 05:00:00 14,5 11,6 44 24 54 29 SSE 1015,0 15 0,0
14.10.2018 04:00:00 14,5 11,8 42 23 53 29 SSE 1015,5 14 0,0

tt = Température de l'air
td = dewpoint
ff = Vitesse du vent
fx = gusts
dd = Direction du vent
ppp = reduced air pressure
vv = visibility
rr = Quantités de précipitations

stations d'obs. à proximité